Location: Madrid
(40.4000°N, 3.6830°W)
Time: 07:54:49
(UTC+02:00)

ISS - Pass Details

Date: 18 October 2017
Orbit: 400 x 408 km, 51.6° (Epoch: 24 October)

Event Time Altitude Azimuth Distance (km) Brightness Sun altitude
Rises 20:33:04 0° 286° (WNW) 2,321 1.6 -12.7°
Reaches altitude 10° 20:36:34 10° 246° (WSW) 1,458 0.1 -13.4°
Maximum altitude 20:37:23 11° 232° (SW) 1,414 -0.3 -13.5°
Drops below altitude 10° 20:38:13 10° 217° (SW) 1,456 -0.5 -13.7°
Sets 20:41:41 0° 177° (S) 2,311 0.0 -14.3°
